Ardmore, OK

7:18 AM CDT on June 23, 2018 (GMT -0500)
Ardmore Municipal

Weather History for KADM - October, 2017

Change the Weather History Date:

Friday, October 13, 2017

  Actual Average Record
Temperature  
Mean Temperature 76 °F -  
Max Temperature 91 °F 74 °F 91 °F (1999)
Min Temperature 61 °F 53 °F 35 °F (2006)
Cooling Degree Days 11    
Growing Degree Days 26 (Base 50)    
Moisture  
Dew Point 65 °F    
Average Humidity 73    
Maximum Humidity 97    
Minimum Humidity 45    
Precipitation  
Precipitation 0.00 in - - ()
Sea Level Pressure  
Sea Level Pressure 30.02 in    
Wind  
Wind Speed 5 mph (SSE)    
Max Wind Speed 14 mph    
Max Gust Speed 21 mph    
Visibility 8 miles    
Events      
Averages and records for this station are not official NWS values.
T = Trace of Precipitation, MM = Missing Value Source: NWS Daily Summary

Daily Weather History Graph

Daily Weather History Graph

Search for Another Location

Airport or City:

Astronomy

Oct. 13, 2017 Rise Set
Actual Time 7:32 AM CDT 6:55 PM CDT
Civil Twilight 7:06 AM CDT 7:21 PM CDT
Nautical Twilight 6:37 AM CDT 7:50 PM CDT
Astronomical Twilight 6:08 AM CDT 8:19 PM CDT
Moon 1:14 AM CDT (10/13) 3:24 PM CDT (10/13)
Length of Visible Light 12h 14m
Length of Day
11h 23m
Last Quarter, 37% of the Moon is Illuminated
Oct 13
Last Quarter
Oct 19
New
Oct 27
First Quarter
Nov 4
Full
Nov 10
Last Quarter

Hourly Weather History & Observations

Time (CDT) Temp. Heat Index Dew Point Humidity Pressure Visibility Wind Dir Wind Speed Gust Speed Precip Events Conditions
12:15 AM 67.6 °F - 61.0 °F 79% 30.02 in 2.0 mi East 3.5 mph - N/A   Haze
12:35 AM 67.1 °F - 60.8 °F 80% 30.02 in 2.0 mi ESE 3.5 mph - N/A   Haze
12:55 AM 66.9 °F - 60.8 °F 81% 30.02 in 2.5 mi East 3.5 mph - N/A   Haze
1:15 AM 66.6 °F - 60.8 °F 82% 30.02 in 2.5 mi ESE 3.5 mph - N/A   Haze
1:35 AM 65.5 °F - 60.6 °F 84% 30.02 in 1.8 mi East 5.8 mph - N/A   Haze
1:55 AM 65.8 °F - 60.8 °F 84% 30.02 in 1.2 mi East 5.8 mph - N/A   Haze
2:15 AM 66.2 °F - 61.0 °F 83% 30.02 in 1.8 mi ESE 5.8 mph - N/A   Haze
2:35 AM 64.9 °F - 60.8 °F 86% 30.02 in 10.0 mi Calm Calm - N/A   Clear
2:55 AM 65.3 °F - 60.8 °F 85% 30.02 in 7.0 mi ESE 4.6 mph - N/A   Clear
3:15 AM 65.3 °F - 61.0 °F 86% 30.02 in 3.0 mi ESE 3.5 mph - N/A   Clear
3:35 AM 65.3 °F - 61.0 °F 86% 30.02 in 5.0 mi ESE 3.5 mph - N/A   Clear
3:55 AM 65.5 °F - 61.2 °F 86% 30.02 in 7.0 mi East 3.5 mph - N/A   Clear
4:15 AM 64.6 °F - 61.3 °F 89% 30.03 in 4.0 mi East 3.5 mph - N/A   Clear
4:35 AM 65.3 °F - 61.5 °F 88% 30.02 in 5.0 mi ESE 3.5 mph - N/A   Clear
4:55 AM 63.0 °F - 61.0 °F 93% 30.03 in 10.0 mi Calm Calm - N/A   Clear
5:15 AM 62.8 °F - 60.8 °F 93% 30.03 in 10.0 mi Calm Calm - N/A   Clear
5:35 AM 63.0 °F - 61.0 °F 93% 30.03 in 10.0 mi Calm Calm - N/A   Clear
5:55 AM 63.0 °F - 61.5 °F 95% 30.04 in 10.0 mi Calm Calm - N/A   Clear
6:15 AM 63.5 °F - 61.9 °F 94% 30.04 in 10.0 mi Calm Calm - N/A   Clear
6:35 AM 62.6 °F - 61.7 °F 97% 30.05 in 10.0 mi Calm Calm - N/A   Clear
6:55 AM 63.5 °F - 61.7 °F 94% 30.05 in 10.0 mi East 3.5 mph - N/A   Clear
7:15 AM 63.0 °F - 61.7 °F 96% 30.05 in 10.0 mi Calm Calm - N/A   Clear
7:35 AM 62.6 °F - 61.5 °F 96% 30.05 in 10.0 mi Calm Calm - N/A   Clear
7:55 AM 61.3 °F - 59.9 °F 95% 30.06 in 10.0 mi Calm Calm - N/A   Clear
8:15 AM 62.4 °F - 61.2 °F 96% 30.06 in 10.0 mi Calm Calm - N/A   Clear
8:35 AM 66.0 °F - 64.4 °F 94% 30.07 in 10.0 mi Calm Calm - N/A   Clear
8:55 AM 69.4 °F - 65.7 °F 88% 30.08 in 10.0 mi Calm Calm - N/A   Clear
9:15 AM 71.8 °F - 66.7 °F 84% 30.08 in 10.0 mi ENE 3.5 mph - N/A   Clear
9:35 AM 74.7 °F - 67.8 °F 79% 30.08 in 10.0 mi South 4.6 mph - N/A   Clear
9:55 AM 77.0 °F - 67.6 °F 73% 30.08 in 10.0 mi SSW 4.6 mph - N/A   Clear
10:35 AM 80.4 °F 83.2 °F 68.4 °F 67% 30.09 in 10.0 mi SSW 10.4 mph - N/A   Clear
10:55 AM 81.9 °F 85.0 °F 68.5 °F 64% 30.09 in 10.0 mi South 10.4 mph 17.3 mph N/A   Clear
10:56 AM 82.4 °F 85.4 °F 68.0 °F 62% 30.09 in 10.0 mi South 9.2 mph - N/A   Clear
11:15 AM 83.5 °F 87.2 °F 69.3 °F 62% 30.08 in 10.0 mi SSW 10.4 mph 16.1 mph N/A   Clear
11:35 AM 84.4 °F 88.2 °F 69.1 °F 60% 30.08 in 10.0 mi SSW 12.7 mph - N/A   Clear
11:55 AM 85.5 °F 89.8 °F 69.4 °F 59% 30.07 in 10.0 mi SW 11.5 mph 20.7 mph N/A   Clear
12:15 PM 86.0 °F 90.1 °F 69.3 °F 57% 30.06 in 10.0 mi SW 12.7 mph - N/A   Clear
12:35 PM 87.1 °F 91.3 °F 69.3 °F 55% 30.05 in 10.0 mi SW 12.7 mph 17.3 mph N/A   Clear
12:55 PM 86.9 °F 91.0 °F 68.7 °F 55% 30.05 in 10.0 mi SW 10.4 mph 16.1 mph N/A   Clear
1:15 PM 89.2 °F 93.6 °F 69.1 °F 51% 30.04 in 10.0 mi South 11.5 mph 16.1 mph N/A   Clear
1:35 PM 88.7 °F 92.6 °F 68.2 °F 51% 30.02 in 10.0 mi SW 10.4 mph 18.4 mph N/A   Clear
1:55 PM 88.2 °F 92.5 °F 69.1 °F 53% 30.01 in 10.0 mi SW 5.8 mph - N/A   Clear
2:15 PM 90.7 °F 95.4 °F 68.9 °F 49% 30.01 in 10.0 mi SSW 8.1 mph - N/A   Clear
2:35 PM 90.3 °F 94.3 °F 68.0 °F 48% 30.00 in 10.0 mi SSW 11.5 mph - N/A   Clear
2:55 PM 90.7 °F 94.5 °F 68.0 °F 47% 29.99 in 10.0 mi South 12.7 mph - N/A   Clear
3:15 PM 90.9 °F 94.8 °F 68.2 °F 47% 29.98 in 10.0 mi South 11.5 mph - N/A   Scattered Clouds
3:35 PM 91.4 °F 94.9 °F 67.6 °F 45% 29.98 in 10.0 mi South 11.5 mph 17.3 mph N/A   Scattered Clouds
3:55 PM 91.8 °F 95.5 °F 67.8 °F 45% 29.98 in 10.0 mi South 11.5 mph 16.1 mph N/A   Scattered Clouds
4:15 PM 91.6 °F 95.2 °F 67.3 °F 45% 29.97 in 10.0 mi South 12.7 mph - N/A   Scattered Clouds
4:35 PM 91.4 °F 94.9 °F 67.5 °F 45% 29.97 in 10.0 mi South 9.2 mph - N/A   Clear
4:55 PM 91.0 °F 94.7 °F 67.8 °F 46% 29.97 in 7.0 mi South 11.5 mph 16.1 mph N/A   Scattered Clouds
5:35 PM 89.1 °F 93.3 °F 68.5 °F 51% 29.97 in 7.0 mi SSE 13.8 mph 17.3 mph N/A   Clear
5:55 PM 87.8 °F 91.4 °F 68.0 °F 52% 29.97 in 5.0 mi SSE 13.8 mph - N/A   Haze
6:15 PM 86.4 °F 89.7 °F 67.8 °F 54% 29.97 in 7.0 mi SSE 11.5 mph 17.3 mph N/A   Clear
6:35 PM 85.3 °F 88.2 °F 67.5 °F 55% 29.97 in 7.0 mi SSE 10.4 mph - N/A   Clear
6:55 PM 83.7 °F 86.5 °F 67.3 °F 58% 29.97 in 7.0 mi SSE 8.1 mph - N/A   Clear
7:15 PM 82.0 °F 84.7 °F 67.3 °F 61% 29.97 in 10.0 mi SSE 5.8 mph - N/A   Clear
7:35 PM 80.1 °F 82.4 °F 67.3 °F 65% 29.98 in 5.0 mi SSE 5.8 mph - N/A   Haze
7:55 PM 79.7 °F - 67.3 °F 66% 29.99 in 4.0 mi SSE 3.5 mph - N/A   Haze
8:15 PM 78.8 °F - 67.3 °F 68% 29.99 in 4.0 mi SSE 3.5 mph - N/A   Haze
8:35 PM 77.7 °F - 67.3 °F 70% 29.99 in 4.0 mi SE 3.5 mph - N/A   Haze
8:55 PM 77.2 °F - 67.5 °F 72% 30.00 in 3.0 mi SE 4.6 mph - N/A   Haze
9:15 PM 76.5 °F - 67.5 °F 74% 30.00 in 3.0 mi SE 4.6 mph - N/A   Haze
9:35 PM 76.1 °F - 67.5 °F 74% 30.00 in 4.0 mi SE 3.5 mph - N/A   Haze
9:55 PM 75.7 °F - 67.6 °F 76% 30.01 in 4.0 mi SE 3.5 mph - N/A   Haze
10:15 PM 75.4 °F - 67.8 °F 77% 30.01 in 4.0 mi ESE 3.5 mph - N/A   Haze
10:35 PM 73.0 °F - 67.6 °F 83% 30.02 in 1.8 mi Calm Calm - N/A   Haze
10:55 PM 71.4 °F - 67.3 °F 87% 30.02 in 5.0 mi ESE 3.5 mph - N/A   Clear
11:15 PM 71.1 °F - 67.1 °F 87% 30.02 in 7.0 mi SE 3.5 mph - N/A   Clear
11:35 PM 71.4 °F - 67.1 °F 86% 30.02 in 10.0 mi SE 3.5 mph - N/A   Clear
11:55 PM 72.1 °F - 67.1 °F 84% 30.02 in 10.0 mi SE 4.6 mph - N/A   Clear